Location: Dattensoll
(49.9928°N, 9.8954°E)
Time: 17:10:34
(UTC+00:00)

Ariane Rocket - Pass Details

Date: 19 May 2025
Orbit: 755 x 764 km, 98.5° (Epoch: 16 June)

Event Time Altitude Azimuth Distance (km) Brightness Sun altitude
Exits shadow 21:17:01 16° 190° (S) 1,923 4.6 -15.2°
Maximum altitude 21:20:54 48° 261° (W) 992 3.7 -15.5°
Drops below altitude 10° 21:25:49 10° 336° (NNW) 2,311 6.9 -15.8°
Sets 21:28:13 0° 342° (NNW) 3,242 8.0 -16.0°
